Theta_e
291 293 296 299 299 299 299 299 299 300 301 299 297 296 293 292 292 293 293 291 291 291 290 289 289 288 288 287 288 287 285 285 286 294 293 291 289 286 286 285 284 284 285
290 292 294 297 297 298 299 299 299 300 301 300 295 293 291 290 290 290 289 289 289 288 288 287 286 286 286 285 285 286 284 284 283 289 289 287 290 286 284 283 283 281 283
290 291 293 296 297 297 297 299 299 301 298 294 291 289 289 289 288 287 286 286 287 287 287 286 286 285 285 283 283 283 283 281 282 282 284 278 277 279 285 281 281 281 281
291 292 293 295 297 297 298 299 299 295 294 293 291 290 287 285 284 284 284 284 285 285 285 285 285 284 284 283 283 283 282 282 280 281 282 280 279 276 275 278 279 280 281
291 291 293 296 296 296 296 296 295 294 293 292 291 289 285 285 284 283 282 282 283 283 284 284 283 283 283 282 282 281 281 281 280 279 279 278 278 277 276 274 276 278 278
291 292 293 295 293 291 291 295 294 292 292 291 289 287 284 283 283 282 281 281 281 282 282 283 282 282 282 281 281 280 280 280 279 279 279 278 277 276 275 274 275 275 277
290 290 290 293 292 290 289 291 293 290 290 289 286 285 284 284 283 282 281 281 280 280 280 281 281 281 281 281 281 280 279 279 278 278 278 278 278 279 278 277 275 274 276
289 290 291 292 291 289 288 289 290 289 287 285 284 284 284 283 283 282 282 281 280 281 280 280 281 280 280 280 279 279 279 278 277 277 278 278 278 279 278 278 275 273 274
288 289 290 290 289 288 287 287 286 287 286 286 284 284 284 283 282 281 281 281 280 281 280 279 279 279 279 279 278 278 277 277 277 277 277 277 277 277 277 277 277 275 271
286 287 288 288 288 288 287 286 286 286 285 285 285 284 284 283 282 282 281 280 280 280 279 278 278 278 278 278 277 277 277 276 276 276 276 276 276 276 276 276 276 275 273
286 286 286 287 286 286 284 284 284 283 283 284 284 283 283 283 282 281 280 280 279 279 279 279 278 278 277 277 277 276 276 276 276 276 276 276 276 274 274 274 274 274 273
286 286 285 285 284 284 284 284 283 283 284 284 283 283 282 282 281 280 280 279 279 279 279 278 278 277 277 277 276 276 276 275 276 276 275 275 277 274 274 273 273 272 272
286 285 284 283 284 284 284 283 283 283 283 282 282 281 281 281 280 280 279 279 279 278 278 278 277 277 277 276 276 276 276 276 276 276 275 275 275 274 273 273 272 272 274
286 285 284 284 285 285 283 283 283 283 282 282 281 281 281 281 281 280 279 279 279 278 277 277 277 277 276 277 276 276 276 276 276 276 276 275 274 274 273 273 273 273 272
286 285 285 285 284 284 284 284 283 283 283 282 281 281 281 281 280 280 279 279 278 278 278 277 276 277 276 277 276 276 275 275 275 275 276 275 275 277 277 275 273 273 271
288 287 286 285 284 284 284 284 283 283 283 282 281 281 281 280 280 280 279 279 278 277 277 277 276 275 276 280 281 277 275 275 275 274 274 275 274 276 279 279 280 278 270
290 288 287 286 286 285 285 284 284 283 282 282 282 281 281 281 281 280 279 278 278 277 276 276 276 275 274 282 282 282 276 275 274 274 274 275 275 274 273 276 278 278 278
291 289 288 288 287 286 285 285 283 282 282 282 282 282 281 281 280 280 279 278 278 277 276 276 275 274 275 281 283 282 276 275 275 274 274 274 274 274 273 273 272 273 274
292 291 290 289 288 285 285 284 282 282 282 282 282 282 282 281 280 279 279 279 278 276 276 276 274 273 273 281 282 281 275 275 274 274 274 273 273 275 278 275 271 273 274
289 288 287 287 286 285 285 283 282 282 282 282 282 283 283 282 280 281 280 279 278 277 275 275 273 272 271 279 282 281 275 270 273 273 274 276 275 277 278 275 273 270 271
287 287 288 287 286 285 284 283 282 282 283 284 284 282 282 282 282 281 279 275 276 274 272 272 271 270 270 271 280 282 276 274 270 271 271 273 277 278 279 280 276 274 273
286 286 285 284 284 284 284 282 282 283 281 281 280 280 281 281 281 279 273 272 273 272 270 269 268 270 269 273 277 280 281 279 270 270 272 272 277 278 279 279 279 280 277
284 284 285 282 281 282 282 280 279 278 278 279 278 277 277 276 276 275 271 269 270 272 271 271 271 267 269 270 277 278 279 280 277 276 275 277 278 279 279 280 279 274 266
280 279 281 279 276 274 277 277 277 276 277 275 274 272 274 271 270 272 272 272 271 271 270 268 268 264 266 268 268 269 270 275 276 276 272 274 278 278 276 271 273 270 267
276 278 279 278 275 274 273 272 274 274 273 271 270 270 270 270 268 268 268 269 265 269 263 264 265 263 263 266 271 269 266 265 269 269 260 261 265 267 268 265 265 267 266
274 275 273 275 272 272 271 270 271 274 272 270 270 269 270 266 267 266 264 274 273 276 277 275 268 263 272 275 276 277 278 279 279 275 270 268 267 267 268 268 266 265 264
Wind_Speed
8 8 7 7 7 6 7 7 9 9 9 8 7 4 4 4 5 5 7 6 6 7 8 6 6 5 6 5 4 3 6 8 4 4 5 4 5 8 5 4 7 9 7
10 11 9 9 9 9 8 7 9 10 7 6 6 5 4 4 4 4 6 5 7 6 8 7 6 6 7 6 5 4 3 4 5 3 2 1 1 4 5 5 7 7 5
18 15 13 13 10 11 9 10 10 10 7 9 9 8 8 5 3 4 4 4 6 7 8 7 7 7 5 6 5 5 6 4 4 7 4 3 1 2 2 4 5 7 5
14 16 16 14 14 11 8 8 8 8 10 11 11 14 7 8 2 2 3 4 6 7 6 7 7 6 5 7 5 5 4 4 3 3 6 7 3 3 4 3 4 5 6
22 22 21 18 13 10 10 9 9 10 11 10 10 8 8 7 5 4 7 6 5 6 6 6 7 7 6 5 7 7 7 4 4 3 1 4 4 5 3 3 5 4 3
19 17 14 13 10 8 8 10 12 10 10 10 10 12 15 13 10 7 7 4 4 4 6 6 6 6 6 7 6 7 7 5 5 4 4 3 3 1 3 1 3 3 4
15 16 17 16 14 14 12 10 13 11 10 11 10 11 14 15 15 12 9 10 6 3 5 6 6 6 7 7 7 6 5 5 4 4 3 4 3 2 2 2 2 3 3
12 15 17 16 16 15 13 12 13 12 11 11 11 10 12 9 9 8 8 6 5 6 5 6 7 7 7 6 6 4 4 5 5 7 5 3 3 3 1 1 1 3 3
13 15 15 15 15 15 15 14 13 12 12 13 11 12 11 10 10 8 6 5 6 6 6 6 7 6 6 6 6 4 5 5 4 5 5 3 2 3 3 2 1 2 3
9 11 13 14 13 13 12 10 11 13 13 12 12 11 11 9 10 10 10 10 7 7 8 7 7 7 6 6 6 5 4 5 3 3 5 3 2 3 2 1 2 1 2
13 13 12 11 11 11 10 11 10 11 11 12 11 12 11 11 11 10 9 10 8 9 9 8 8 7 7 6 6 5 6 5 5 4 4 4 3 2 2 2 1 1 1
13 13 12 12 12 13 13 13 12 12 12 11 11 12 11 11 11 10 9 9 10 8 9 8 7 6 6 6 7 7 5 5 5 4 4 3 2 2 2 1 3 3 2
11 11 11 14 14 14 14 13 12 12 10 9 11 10 11 11 11 11 11 10 10 8 7 7 7 7 7 7 6 6 6 5 5 4 4 4 4 2 2 3 3 3 4
13 13 13 14 13 13 14 14 12 11 11 11 10 12 12 12 12 12 11 11 10 10 9 7 7 7 7 6 6 6 5 5 4 4 4 5 4 5 4 4 4 4 4
12 15 15 14 14 14 15 14 14 13 13 13 12 12 11 10 9 10 10 9 9 9 8 8 6 7 7 6 7 6 6 6 5 5 5 4 5 8 7 4 4 4 4
17 17 16 16 18 18 17 16 16 16 15 15 14 11 10 10 11 10 10 10 9 8 8 8 8 7 6 13 14 8 6 5 5 5 5 4 5 7 11 13 13 9 4
17 17 20 20 18 20 19 19 16 14 14 13 11 11 12 11 10 10 10 11 11 8 9 8 8 8 6 16 15 14 6 5 5 5 4 4 3 5 5 10 14 13 14
13 14 15 15 15 14 15 14 14 14 14 12 12 11 11 11 9 10 11 10 9 11 9 9 8 7 7 17 15 15 6 5 6 6 5 5 5 6 6 7 8 9 9
14 14 13 13 14 14 14 14 14 15 15 14 14 13 13 12 12 13 12 9 9 8 9 7 8 9 7 17 16 14 5 7 7 6 6 6 7 11 15 9 7 9 8
9 11 11 11 15 15 16 16 15 15 15 15 15 14 14 14 14 14 12 9 9 9 7 8 8 9 8 16 16 14 4 5 6 5 7 12 12 16 16 10 8 9 7
8 8 13 15 15 15 15 14 14 16 15 11 11 12 14 14 12 9 7 8 7 5 7 8 6 8 7 8 17 18 4 6 4 5 6 6 16 18 18 18 8 9 7
8 7 8 7 6 10 12 10 13 6 8 11 12 12 12 9 9 11 6 6 7 7 6 5 4 4 4 9 14 17 19 12 6 7 7 6 16 17 18 16 19 20 8
7 6 10 9 6 7 9 10 6 9 10 10 10 9 7 7 8 9 8 4 6 7 7 7 7 2 3 3 14 17 18 19 13 7 9 16 18 20 17 19 11 4 2
5 4 9 8 6 4 5 5 7 7 9 8 7 6 8 6 5 4 5 6 7 7 5 5 5 2 3 4 4 5 6 13 11 12 6 8 15 16 14 4 9 2 2
4 4 7 7 7 6 6 3 6 8 7 6 5 4 4 5 5 3 4 4 1 5 4 4 4 4 4 5 9 7 4 4 8 7 1 2 5 7 6 4 5 4 4
4 6 5 8 6 6 6 5 4 6 8 6 5 5 5 4 4 5 3 5 6 9 9 8 7 3 9 8 8 10 12 14 16 8 9 9 8 9 8 8 7 4 4
Wind_Direction
187 183 183 174 168 171 164 164 150 151 139 132 122 108 102 91 76 71 84 90 92 94 100 95 89 80 84 75 53 79 55 36 6 107 72 59 66 67 50 53 47 36 23
178 186 182 179 180 176 180 168 162 161 155 140 115 117 121 82 82 88 73 75 93 93 94 101 94 88 92 71 61 66 92 58 6 113 107 71 327 38 47 41 41 26 10
186 182 187 188 181 185 179 172 165 166 136 124 113 103 101 95 87 67 68 48 81 82 90 91 92 87 88 86 69 68 85 113 23 42 124 91 203 346 352 29 38 23 7
182 180 184 189 189 187 167 167 161 145 140 144 142 148 144 137 145 115 93 75 65 80 87 93 94 89 86 85 79 59 77 100 123 49 39 60 117 113 332 357 14 359 4
182 185 189 186 182 169 166 154 148 146 151 154 156 141 127 111 116 107 105 99 80 79 83 87 91 92 87 85 89 71 61 45 90 85 123 63 65 62 95 292 326 344 330
191 187 178 165 165 156 154 158 156 157 158 155 151 148 139 139 140 142 131 118 99 92 84 90 95 96 98 90 85 79 80 82 78 76 66 103 112 69 82 357 284 255 287
177 170 166 172 170 170 167 166 165 162 155 154 150 151 150 153 153 152 148 144 137 126 132 123 118 109 106 102 99 99 103 101 102 98 88 79 81 107 97 133 295 289 303
179 180 176 173 171 172 171 170 167 161 159 157 156 153 153 154 155 153 150 145 144 146 148 129 113 108 110 105 101 100 103 105 102 96 88 92 87 76 80 115 100 317 302
183 179 171 174 172 175 178 173 165 163 165 165 158 161 158 155 156 138 134 140 134 139 136 123 117 122 120 120 124 119 118 116 106 106 106 106 103 92 86 79 125 137 320
169 175 177 176 179 177 172 171 170 168 166 163 165 164 160 151 148 150 154 152 146 142 139 132 134 135 135 133 126 123 132 120 120 118 120 115 104 99 108 99 60 85 200
181 180 180 179 176 168 167 168 167 161 163 166 162 158 157 154 153 155 153 154 148 150 148 151 147 147 146 147 137 138 143 138 139 147 141 121 133 145 102 92 167 224 178
180 181 177 169 170 174 174 176 173 170 172 167 161 164 158 154 153 155 157 158 158 156 153 154 153 149 150 153 154 156 149 161 176 169 148 164 157 180 170 166 220 222 239
170 175 173 180 182 182 180 178 176 173 164 159 160 159 159 159 163 161 162 163 156 156 154 156 157 162 167 161 166 157 163 185 191 183 183 200 197 223 206 217 223 237 258
180 184 189 189 185 184 180 179 177 169 162 161 164 167 168 173 171 165 166 164 161 161 165 168 163 166 170 168 169 163 168 198 205 208 212 215 216 225 231 223 231 242 235
192 197 194 188 182 183 182 179 176 170 169 171 172 179 172 168 162 164 163 156 162 170 168 160 165 176 179 175 178 176 177 201 210 224 230 229 233 246 236 217 222 232 234
211 202 194 188 187 183 184 179 178 176 172 179 181 168 169 167 168 169 163 162 169 165 164 176 177 184 192 197 194 175 189 201 214 229 236 240 247 260 264 271 272 256 215
214 202 198 194 189 187 178 184 178 166 172 171 171 170 171 176 173 168 168 176 177 166 183 184 187 200 191 207 201 201 196 204 216 220 229 240 227 231 236 261 271 276 276
209 200 194 195 190 178 177 167 161 163 168 174 173 170 170 177 172 172 184 178 170 182 187 192 193 202 209 215 206 217 190 206 217 219 222 232 239 231 242 245 246 246 246
205 200 188 175 165 165 160 154 158 167 173 180 177 175 173 179 180 184 185 184 175 181 190 189 189 200 216 215 215 220 180 213 223 218 220 228 241 246 259 259 251 258 255
169 162 153 147 155 164 158 161 170 173 183 180 178 174 181 187 187 192 187 179 187 194 181 197 201 206 217 216 221 224 180 215 225 225 240 239 248 255 257 252 247 257 248
136 128 153 164 167 160 160 172 169 186 184 162 168 182 188 189 189 177 170 174 175 157 185 203 203 209 202 212 228 233 199 223 218 231 241 240 254 262 263 263 252 252 243
108 119 117 105 109 137 152 165 183 149 140 153 161 174 177 176 168 168 153 160 165 185 194 200 228 216 185 203 233 237 241 232 214 232 239 237 251 259 262 265 264 273 276
113 109 123 121 113 133 148 156 174 142 142 152 166 166 153 157 160 161 158 138 164 189 206 208 227 198 164 201 235 236 245 252 256 252 236 248 256 258 264 272 248 246 170
103 90 118 116 106 65 81 106 140 138 143 149 149 150 159 144 134 126 150 169 185 199 202 197 215 151 182 211 218 235 257 265 265 265 290 279 272 260 264 243 263 172 212
75 95 123 129 130 124 106 103 134 133 131 118 126 130 123 143 133 109 156 158 149 173 171 198 173 182 221 226 226 219 221 224 246 260 310 295 262 261 253 233 212 208 209
97 100 96 118 129 121 109 95 108 124 131 130 144 158 150 141 141 139 89 192 184 206 213 213 189 227 233 237 234 246 255 259 260 244 241 248 241 243 247 243 239 210 204